This is the latest recevied weather packets stored in our database for station/object KD9JB-1. If no packets are shown the sender has not sent any weather packets the latest 10 day(s).
| Time | Temp. | Humidity | Pressure | Rain* | Wind** | Luminosity | Snow |
|---|---|---|---|---|---|---|---|
| 1777600007 | 11.67° C | 61% | 1015.8 hPa | 0 mm | - | - | - |
| 1777599707 | 12.22° C | 62% | 1015.8 hPa | 0 mm | - | - | - |
| 1777599407 | 12.22° C | 61% | 1015.7 hPa | 0 mm | - | - | - |
| 1777599107 | 12.78° C | 58% | 1015.7 hPa | 0 mm | - | - | - |
| 1777598807 | 12.78° C | 56% | 1015.7 hPa | 0 mm | - | - | - |
| 1777598507 | 13.33° C | 53% | 1015.6 hPa | 0 mm | - | - | - |
| 1777598207 | 12.78° C | 54% | 1015.6 hPa | 0 mm | - | - | - |
| 1777597907 | 12.78° C | 55% | 1015.6 hPa | 0 mm | - | - | - |
| 1777597607 | 12.78° C | 55% | 1015.6 hPa | 0 mm | - | - | - |
| 1777597307 | 13.33° C | 54% | 1015.6 hPa | 0 mm | - | - | - |
| 1777597007 | 13.33° C | 53% | 1015.6 hPa | 0 mm | - | - | - |
| 1777596707 | 13.33° C | 54% | 1015.7 hPa | 0 mm | - | - | - |
| 1777596407 | 13.33° C | 54% | 1015.7 hPa | 0 mm | - | - | - |
| 1777596107 | 13.89° C | 54% | 1015.7 hPa | 0 mm | - | - | - |
| 1777595807 | 13.89° C | 53% | 1015.6 hPa | 0 mm | - | - | - |
| 1777595507 | 14.44° C | 53% | 1015.6 hPa | 0 mm | - | - | - |
| 1777595207 | 14.44° C | 54% | 1015.6 hPa | 0 mm | - | - | - |
| 1777594908 | 15° C | 51% | 1015.6 hPa | 0 mm | - | - | - |
| 1777594608 | 15° C | 46% | 1015.6 hPa | 0 mm | - | - | - |
| 1777594307 | 15.56° C | 43% | 1015.5 hPa | 0 mm | - | - | - |
| 1777594007 | 16.11° C | 43% | 1015.6 hPa | 0 mm | - | - | - |
| 1777593707 | 16.11° C | 43% | 1015.6 hPa | 0 mm | - | - | - |
| 1777593407 | 16.11° C | 42% | 1015.6 hPa | 0 mm | - | - | - |
| 1777593107 | 16.11° C | 41% | 1015.6 hPa | 0 mm | - | - | - |
| 1777592807 | 16.11° C | 42% | 1015.6 hPa | 0 mm | - | - | - |
* Rain latest hour (hover to see other rain measurements)
** Current wind speed in m/s (hover to see current wind gust speed)